Home > Weather > Willemstad > Past weeks

Flag for Curaçao Weather for the Past 2 Weeks in Willemstad, Curaçao

Now
79 °F

Passing clouds.


Feels Like: 82 °F
Forecast: 78 / 85 °F
Wind: 16 mph from Southeast

Location: Hato Airport - Curacao

Current Time: Feb 9, 2016 at 3:08:26 AM

Latest Report: Feb 9, 2016 at 2:00 AM


Visibility: 6 mi

Pressure: 29.92 "Hg

Humidity: 84%

Dew point: 73 °F

Location of WillemstadLocation

Historic Weather in Willemstad — Graph

°F

Willemstad Temperature Yesterday

Maximum temperature yesterday: 86 °F (at 2:00 PM)
Minimum temperature yesterday: 79 °F (at 12:00 AM)
Average temperature yesterday: 81 °F

High & Low Weather Summary for the Past Weeks

 TemperatureHumidityPressure
High88 °F (Jan 26, 12:00 PM)89% (Jan 25, 11:00 PM)30.07 "Hg (Jan 25, 11:00 PM)
Low73 °F (Feb 5, 7:00 AM)58% (Jan 27, 4:00 PM)29.86 "Hg (Feb 3, 3:00 PM)
Average81 °F76%29.95 "Hg
* Reported Jan 25 3:00 AM — Feb 9 1:00 AM, Willemstad, Weather by CustomWeather, © 2016

Note: Actual official high and low records may vary slightly from our data, if they occured in-between our weather recording intervals... More about our weather records

Advertising

Willemstad Weather History for the Previous 24 Hours

 ConditionsComfort  
Time TempWeatherWind HumidityBarometerVisibility
1:00 AM
Tue, Feb 9
79 °FPassing clouds.16 mph84%29.92 "Hg6 mi
12:00 AM79 °FPassing clouds.16 mph84%29.95 "Hg6 mi
11:00 PM
Mon, Feb 8
79 °FPassing clouds.17 mph84%29.95 "HgN/A
10:00 PM79 °FPassing clouds.17 mph84%29.92 "HgN/A
9:00 PM79 °FPassing clouds.18 mph84%29.92 "HgN/A
8:00 PM79 °FPassing clouds.20 mph84%29.89 "HgN/A
7:00 PM79 °FPassing clouds.18 mph84%29.86 "HgN/A
6:00 PM81 °FPassing clouds.17 mph79%29.86 "HgN/A
5:00 PM82 °FPassing clouds.18 mph74%29.86 "HgN/A
4:00 PM82 °FScattered clouds.21 mph74%29.86 "HgN/A
3:00 PM84 °FScattered clouds.18 mph70%29.86 "HgN/A
2:00 PM86 °FPassing clouds.21 mph59%29.89 "HgN/A
1:00 PM84 °FScattered clouds.18 mph66%29.95 "Hg5 mi
12:00 PM84 °FPartly sunny.21 mph66%29.98 "Hg5 mi
11:00 AM82 °FPartly sunny.20 mph74%30.01 "Hg5 mi
10:00 AM84 °FScattered clouds.23 mph66%30.01 "Hg5 mi
9:00 AM81 °FPartly sunny.18 mph79%29.98 "Hg5 mi
8:00 AM79 °FScattered clouds.17 mph84%29.95 "Hg5 mi
7:00 AM79 °FScattered clouds.16 mph84%29.92 "HgN/A
6:00 AM79 °FPassing clouds.20 mph84%29.92 "HgN/A
3:00 AM79 °FPassing clouds.17 mph84%29.89 "HgN/A
Weather by CustomWeather, © 2016

See weather overviewHow to use our weather pages